Regional Weather Roundup
Issued by NWS Charleston, SC

Current Version | Previous Version | Graphics & Text | Print | Product List | Glossary On
Versions: 1 2 3 4 5 6 7 8 9 10 11 12 13 14 15 16 17 18 19 20 21 22 23 24 25 26 27 28 29 30 31 32 33 34 35 36 37 38 39 40 41 42 43 44 45 46 47 48 49 50
000
ASUS42 KCHS 072312
RWRCHS

REGIONAL WEATHER ROUNDUP
NATIONAL WEATHER SERVICE CHARLESTON SC
700 PM EDT TUE JUL 07 2015

NOTE: "FAIR" INDICATES FEW OR NO CLOUDS BELOW 12,000 FEET WITH NO
SIGNIFICANT WEATHER AND/OR OBSTRUCTIONS TO VISIBILITY.

NOT ALL STATIONS ARE QUALITY CONTROLLED BY THE NATIONAL
WEATHER SERVICE. USE DATA WITH CAUTION...ESPECIALLY
DEWPOINT OBSERVATIONS.

SCZ027-030-031-034>040-042>050-080000-
...SOUTHEAST SOUTH CAROLINA...

CITY           SKY/WX    TMP DP  RH WIND       PRES   REMARKS
N CHARLESTON   CLOUDY    81  74  79 S7        30.12R
WATERFRONT PAR   N/A     83  75  76 S7        30.09S HX  90
MOUNT PLEASANT LGT RAIN  82  75  78 S7        30.12R
JOHNS ISLAND   FAIR      82  75  78 S10       30.12S
PINOPOLIS      NOT AVBL
MONCKS CORNER  FAIR      81  73  78 S5        30.11S
SUMMERVILLE    FAIR      79  77  94 S5        30.12R
BEAUFORT MCAS  CLOUDY    81  74  79 S3        30.11S
BEAUFORT ARPT  FAIR      79  75  89 CALM      30.11S
HILTON HEAD IS MOSUNNY   79  72  78 S6        30.13S
WALTERBORO     CLOUDY    81  70  69 S8        30.12R HAZE
ALLENDALE      FAIR      84  73  70 SE9       30.09R HX  91

...SOUTHERN MIDLANDS AND PEE DEE...

CITY           SKY/WX    TMP DP  RH WIND       PRES   REMARKS
GEORGETOWN     NOT AVBL
KINGSTREE      NOT AVBL
ORANGEBURG     MOSUNNY   83  71  67 S7        30.10R
BARNWELL       FAIR      91  72  52 SW7       30.09R HX  98
AIKEN          NOT AVBL
MANNING        FAIR      81  68  65 S6        30.10S HAZE
COLUMBIA       MOSUNNY   92  64  39 W8        30.06S HX  93
SUMTER         SUNNY     89  72  58 S12       30.06R HX  95
FLORENCE       SUNNY     89  71  55 S14       30.06F HX  95
MYRTLE BEACH   MOSUNNY   82  73  74 S16       30.13S
N MYRTLE BEACH PTSUNNY   82  74  76 SW14      30.11S

$$

GAZ063-065-086>088-099>101-113>116-118-119-134>141-150-080000-
...SOUTHEAST GEORGIA...

CITY           SKY/WX    TMP DP  RH WIND       PRES   REMARKS
SAVANNAH ARPT  CLOUDY    77  72  84 S5        30.12S
HUNTER AAF     CLOUDY    77  75  93 S3        30.10S
FORT STEWART   CLOUDY    74  71  89 SE3       30.11S
STATESBORO     NOT AVBL
SYLVANIA       PTCLDY    85  76  74 S7        30.11R HX  95
CLAXTON        MOCLDY    82  73  74 SE7       30.10R

...CSRA...CENTRAL AND FAR SOUTHEAST GEORGIA...

CITY           SKY/WX    TMP DP  RH WIND       PRES   REMARKS
THOMSON        MOSUNNY   91  76  61 CALM      30.14S HX 103
AUGUSTA-BUSH   MOSUNNY   91  68  46 SW5       30.07S HX  95
AUGUSTA-DANIEL LGT RAIN  91  68  46 W5        30.09F HX  95
SWAINSBORO     FAIR      93  70  46 W3        30.10S HX  99
VIDALIA        MOSUNNY   91  66  43 CALM      30.10R HX  94
EASTMAN        FAIR      91  70  49 NW3       30.12S HX  97
HAZLEHURST     FAIR      92  67  44 CALM      30.09S HX  95
ALMA           MOSUNNY   90  69  50 VRB3      30.09F HX  94
WAYCROSS       PTSUNNY   88  77  71 S7        30.11R HX 100
JESUP          CLOUDY    79  75  89 SE9       30.13R
BAXLEY         FAIR      91  70  49 CALM      30.09S HX  97
BRUNSWICK      PTSUNNY   79  72  78 CALM      30.14R
SAINT SIMONS   MOSUNNY   79  70  74 CALM      30.12S

$$

SCZ027-028-034-036>038-045-046-048>050-GAZ119-141-080000-
...LAKE AND SUPPLEMENTAL COASTAL OBSERVATIONS...

STATION/POSITION TIME  TEMP    WIND        PRES    WAVE   SWELL
                       AIR SEA DIR/SP/G            HT/PER HT/PER/DIR
                 (UTC) (F)     (DEG/KT/KT) (MB)    (FT/S) (FT/S/D)
UPR LAKE MARION  NOT AVBL
WINYAH BAY       NOT AVBL
LAKE MURRAY      2200   90     210/  6/  9 1017.6F
ACE BASIN NERRS  NOT AVBL
FORT PULASKI     2200   81 84  150/  4/  6 1020.4F
SAPELO ISLAND    2200   87     170/ 11     1020.0S

$$

ANZ835-935-AMZ111-154-330-350-352-354-370-450-454-472-080000-
...C-MAN AND BUOY OBSERVATIONS...

STATION/POSITION TIME  TEMP    WIND        PRES    WAVE   SWELL
                       AIR SEA DIR/SP/G            HT/PER HT/PER/DIR
                 (UTC) (F)     (DEG/KT/KT) (MB)    (FT/S) (FT/S/D)
BUOY 41004       2250   83 83  210/ 12/ 16 1019.6F   3/ 8   2/ 8
BUOY 41008       2250   80 80  180/  8/ 10 1020.6R   2/ 9   2/100/ 9
FOLLY BEACH CMAN 2200   82     200/ 10/ 11 1020.0F
CAPERS NEARSHORE 2208   82     210/ 12/ 14 1020.1F
FRIPP NEARSHORE  2200   82     200/ 10/ 12 1019.6F


STATION/POSITION TIME  TEMP    WIND        PRES    WAVE   SWELL
                       AIR SEA DIR/SP/G            HT/PER HT/PER/DIR
                 (UTC) (F)     (DEG/KT/KT) (MB)    (FT/S) (FT/S/D)
5E ST. MARYS GA  2221      80                N/A     2/ 9
FRYING PAN BUOY  2250   83 81  210/ 10/ 12 1020.2F   3/ 8   2/120/ 8
BUOY 41025       2250   82 83  210/ 16/ 19 1019.3F   3/ 9   2/110/ 9
CAPE LOOKOUT NC  2200   83     200/ 11/ 14 1019.5F
BUOY 41002       2250   83 81  200/ 10/ 10 1021.8S   4/ 8   3/130/ 8
BUOY 41010       2220   83 84  180/  6/  8 1021.1S
ST AUGUSTINE FL  2300   77 77  180/  9/ 11 1021.7R


$$



USA.gov is the U.S. government's official web portal to all federal, state and local government web resources and services.